星链-1780 (STARLINK-1780 )

导读 | 豆包AI

STARLINK-1780是美国太空探索技术公司星链卫星互联网项目的卫星,于2020年10月18日发射升空。它属于星链低轨卫星组网的一员,主要用于为全球提供高速互联网服务,尤其覆盖偏远地区。作为Starlink批量部署的卫星之一,它助力构建全球卫星互联网星座,推动全球互联网络覆盖。

Basic Information
目录编号:
46684
目录名称:
STARLINK-1780
国际标识:
2020-073Q
轨道中心:
EARTH
卫星名称:
星链-1780
卫星全名:
星链-1780 (STARLINK-1780 )
卫星状态:
已陨落 最后检测时间 2025-02-17
发射日期:
2020-10-18 UTC
国别 :
美国 (US)
星等 :
--
Orbit Information
数据来源 国际轨道数据
星历时间: 2025-02-18T00:05:47+0800
轨道信息已过期389天
半长轴: 6528.458km
偏心率: 0.0002651
轨道倾角: 53.019°
近地点辐角 323.817°
升交点赤经 132.403°
平近点角 113.091°
近地点: 148.592km
远地点: 152.054km
周期: 87.493分钟
每日圈数: 16.458371
Detailed Information
固有亮度:
5
最大亮度:
2.5
卫星平台:
Starlink V1.0
覆盖范围:
全球
运营商:
太空探索技术公司
运营商所在国:
美国
制造商(研发单位):
太空探索技术公司
制造商所在国:
美国
使用方式:
暂无
Satellite Introduction
星链(Starlink)计划是由太空探索技术公司(SpaceX)提出的一个巨型低轨卫星互联网星座项目,计划在2019年至2024年间在太空搭建由约1.2万颗卫星组成的“星链”网络,其中1584颗将部署在地球上空550千米处的近地轨道,并从2020年开始工作。该卫星仍在工作。